Regional Weather Roundup
Issued by NWS

Home | Current Version | Previous Version | Graphics & Text | Print | Product List | Glossary On
Versions: 1 2 3 4 5 6 7 8 9 10 11 12 13 14 15 16 17 18 19 20 21 22 23 24 25 26 27 28 29 30 31 32 33 34 35 36 37 38 39 40 41 42 43 44 45 46 47 48 49 50
000
ASUS43 KMKX 281811
RWRWI

WISCONSIN REGIONAL WEATHER ROUNDUP
NATIONAL WEATHER SERVICE MILWAUKEE/SULLIVAN WI
100 PM CDT SUN MAY 28 2017

NOTE: "FAIR" INDICATES FEW OR NO CLOUDS BELOW 12,000 FEET WITH NO
SIGNIFICANT WEATHER AND/OR OBSTRUCTIONS TO VISIBILITY.

WIZ001-002-006>008-014>016-023>028-281900-
NORTHWEST WISCONSIN

CITY           SKY/WX    TMP DP  RH WIND       PRES   REMARKS
SUPERIOR ARPT  NOT AVBL
ASHLAND        PTSUNNY   60  53  77 CALM      29.65F
6HR MIN TEMP:  55; 6HR MAX TEMP:  63; 6HR PCP:  0.16;

HAYWARD        MOSUNNY   66  44  45 W9G18     29.66S
6HR MIN TEMP:  55; 6HR MAX TEMP:  66; 6HR PCP:  0.19;

SIREN          MOSUNNY   64  45  49 NW17G26   29.70S
6HR MIN TEMP:  55; 6HR MAX TEMP:  65;

CUMBERLAND     PTSUNNY   63  45  51 W16G22    29.70S
RICE LAKE      MOSUNNY   66  45  46 W14G21    29.71S
6HR MIN TEMP:  56; 6HR MAX TEMP:  66;

CHETEK         CLOUDY    66  46  48 NW10      29.70S
6HR MIN TEMP:  56; 6HR MAX TEMP:  67;

LADYSMITH      MOSUNNY   66  45  47 W14G25    29.70R
6HR MIN TEMP:  55; 6HR MAX TEMP:  68;

EAU CLAIRE     MOSUNNY   69  45  41 W18G25    29.70R
6HR MIN TEMP:  57; 6HR MAX TEMP:  69;

MENOMONIE      MOSUNNY   66  45  46 W15G22    29.72R
6HR MIN TEMP:  57; 6HR MAX TEMP:  68; 6HR PCP:  0.01;

NEW RICHMOND   PTSUNNY   66  46  48 W15G24    29.74R
6HR MIN TEMP:  57; 6HR MAX TEMP:  66;

OSCEOLA        PTSUNNY   65  49  54 W12G17    29.75F
6HR MIN TEMP:  57; 6HR MAX TEMP:  66;

$$

WIZ003>005-009-010-017-018-281900-
NORTH CENTRAL WISCONSIN

CITY           SKY/WX    TMP DP  RH WIND       PRES   REMARKS
MANITOWISH WTR CLOUDY    55  55 100 NW6       29.65R
6HR MIN TEMP:  52; 6HR MAX TEMP:  66; 6HR PCP:  0.09;

ARBOR VITAE    CLOUDY    61  52  71 S7        29.65R
6HR MIN TEMP:  55; 6HR MAX TEMP:  70;

WOODRUFF       CLOUDY    61  52  71 S7        29.65R
6HR MIN TEMP:  55; 6HR MAX TEMP:  70;

RHINELANDER    LGT RAIN  64  52  64 SW7G23    29.65F
6HR MIN TEMP:  55; 6HR MAX TEMP:  71; 6HR PCP: TRACE;

EAGLE RIVER    PTSUNNY   68  45  44 SW9       29.62F
6HR MIN TEMP:  52; 6HR MAX TEMP:  68;

LAND O LAKES   PTSUNNY   68  46  44 S8        29.64F
6HR MIN TEMP:  53; 6HR MAX TEMP:  69; 6HR PCP:  0.05;

PHILLIPS       MOSUNNY   65  52  63 SW14G20   29.64F
6HR MIN TEMP:  52; 6HR MAX TEMP:  66; 6HR PCP:  0.04;

TOMAHAWK       HVY RAIN  61  54  77 SW3       29.67S
6HR MIN TEMP:  52; 6HR MAX TEMP:  67;

MEDFORD        PTSUNNY   66  46  47 W16G22    29.67S
6HR MIN TEMP:  53; 6HR MAX TEMP:  68;

MERRILL        CLOUDY    68  51  55 S17       29.67F
6HR MIN TEMP:  54; 6HR MAX TEMP:  69; 6HR PCP:  0.01;

$$

WIZ029-030-035-036-043>047-281900-
CENTRAL WISCONSIN

CITY           SKY/WX    TMP DP  RH WIND       PRES   REMARKS
WAUSAU         PTSUNNY   68  51  54 S15G21    29.65F
6HR MIN TEMP:  54; 6HR MAX TEMP:  69; 6HR PCP:  0.03;

MOSINEE        PTSUNNY   68  54  60 S10G22    29.69F
MARSHFIELD     CLOUDY    67  52  58 W14       29.67F
6HR MIN TEMP:  55; 6HR MAX TEMP:  69; 6HR PCP: TRACE;

STEVENS POINT  MOSUNNY   69  49  49 SW13G18   29.69F
6HR MIN TEMP:  55; 6HR MAX TEMP:  69;

WAUPACA        SUNNY     73  53  50 S10       29.71F
6HR MIN TEMP:  59; 6HR MAX TEMP:  73;

WAUTOMA        PTSUNNY   70  54  56 S15       29.71F
6HR MIN TEMP:  57; 6HR MAX TEMP:  70;

WISC RAPIDS    MOSUNNY   71  51  49 S14G20    29.70F
6HR MIN TEMP:  56; 6HR MAX TEMP:  73; 6HR PCP:  0.01;

CAMP DOUGLAS   MOSUNNY   70  53  54 W13       29.70F
6HR MIN TEMP:  56; 6HR MAX TEMP:  72;

$$

WIZ011>013-019>022-031-037>040-048>050-281900-
NORTHEAST WISCONSIN

CITY           SKY/WX    TMP DP  RH WIND       PRES   REMARKS
ANTIGO         PTSUNNY   65  53  64 S12G17    29.68F
6HR MIN TEMP:  53; 6HR MAX TEMP:  67; 6HR PCP:  0.09;

SHAWANO        SUNNY     70  51  51 SW9       29.69F
6HR MIN TEMP:  58; 6HR MAX TEMP:  71; 6HR PCP:  0.02;

OCONTO         MOSUNNY   66  55  68 W8        29.68F
6HR MIN TEMP:  56; 6HR MAX TEMP:  66; 6HR PCP:  0.15;

STURGEON BAY   CLOUDY    60  56  86 W8        29.70F
6HR MIN TEMP:  56; 6HR MAX TEMP:  60;

GREEN BAY      MOSUNNY   66  59  78 SW8       29.70F
6HR MIN TEMP:  57; 6HR MAX TEMP:  66; 6HR PCP:  0.36;

MANITOWOC      CLOUDY    65  56  72 W8        29.72F
6HR MIN TEMP:  57; 6HR MAX TEMP:  65; 6HR PCP:  0.83;

APPLETON       PTSUNNY   64  52  63 W8        29.71F
CLINTONVILLE   SUNNY     70  50  49 SW9       29.69F
OSHKOSH        SUNNY     67  54  63 SW7       29.71F
6HR MIN TEMP:  56; 6HR MAX TEMP:  67; 6HR PCP:  0.14;

$$

WIZ032>034-041-042-053>061-281900-
SOUTHWEST WISCONSIN

CITY           SKY/WX    TMP DP  RH WIND       PRES   REMARKS
LA CROSSE      SUNNY     74  47  38 W20G26    29.71F
6HR MIN TEMP:  59; 6HR MAX TEMP:  75;

SPARTA         SUNNY     72  46  39 W13G20    29.72S
6HR MIN TEMP:  54; 6HR MAX TEMP:  72;

VIROQUA        MOSUNNY   71  46  39 SW13      29.74F
6HR MIN TEMP:  56; 6HR MAX TEMP:  73;

BOSCOBEL       MOSUNNY   74  51  44 W12       29.73F
6HR MIN TEMP:  60; 6HR MAX TEMP:  75; 6HR PCP:  0.01;

PRAIRIE DU CHI SUNNY     75  43  32 W17       29.74F
6HR MIN TEMP:  57; 6HR MAX TEMP:  75;

PLATTEVILLE    PTSUNNY   71  56  57 SW12G18   29.77F
6HR MIN TEMP:  58; 6HR MAX TEMP:  72;

$$

WIZ056-057-062-063-064-067-068-281900-
SOUTH CENTRAL WISCONSIN

CITY           SKY/WX    TMP DP  RH WIND       PRES   REMARKS
REEDSBURG      CLOUDY    69  53  55 SW6       29.72F
6HR MIN TEMP:  56; 6HR MAX TEMP:  72;

BARABOO/DELLS  PTSUNNY   69  50  50 SW9       29.72F
6HR MIN TEMP:  56; 6HR MAX TEMP:  71;

LONE ROCK      MOSUNNY   73  54  51 W7        29.72F
6HR MIN TEMP:  59; 6HR MAX TEMP:  74;

MINERAL POINT  PTSUNNY   73  55  53 W12       29.76F
MADISON        MOSUNNY   68  53  58 S7        29.74F
6HR MIN TEMP:  56; 6HR MAX TEMP:  69; 6HR PCP:  0.01;

MIDDLETON      MOSUNNY   72  53  50 W10G16    29.75F
6HR MIN TEMP:  58; 6HR MAX TEMP:  72;

WATERTOWN      MOSUNNY   66  58  74 W5        29.74F
6HR MIN TEMP:  56; 6HR MAX TEMP:  66; 6HR PCP:  0.18;

MONROE         MOSUNNY   70  52  52 SW9       29.77F
JANESVILLE     MOSUNNY   70  55  60 NW8       29.76S
$$

WIZ051-052-058>065-066-070>072-281900-
SOUTHEAST WISCONSIN

CITY           SKY/WX    TMP DP  RH WIND       PRES   REMARKS
MILWAUKEE      CLOUDY    66  61  84 NW5       29.74F
6HR MIN TEMP:  59; 6HR MAX TEMP:  66; 6HR PCP:  0.54;

WAUKESHA       PTSUNNY   63  55  77 NW5       29.75F
MILWAUKEE/TIMM PTSUNNY   64  55  72 CALM      29.75F
RACINE         CLOUDY    66  60  81 VRB6      29.75F
6HR MIN TEMP:  59; 6HR MAX TEMP:  65; 6HR PCP:  0.23;

KENOSHA        CLOUDY    66  61  84 NW8       29.74F
6HR MIN TEMP:  60; 6HR MAX TEMP:  66; 6HR PCP:  0.15;

FOND DU LAC    MOSUNNY   67  54  63 W7        29.72F
6HR MIN TEMP:  57; 6HR MAX TEMP:  68; 6HR PCP:  0.19;

SHEBOYGAN      MOSUNNY   66  59  78 W8        29.72F
6HR MIN TEMP:  57; 6HR MAX TEMP:  66; 6HR PCP:  0.56;

WEST BEND      PTSUNNY   66  57  72 W8        29.73F
JUNEAU         MOSUNNY   65  56  73 SW6       29.75F
6HR MIN TEMP:  56; 6HR MAX TEMP:  65; 6HR PCP:  0.11;

$$

LSZ147-162-281900-
LAKE SUPERIOR

STATION/POSITION TIME  TEMP    WIND        PRES    WAVE
                       AIR SEA DIR/SP/G            HT/PER
                 (UTC) (F)     (DEG/KT/KT) (MB)    (FT/S)
W MID LAKE BUOY  1650   45 38  170/  4/  4 1004.6F   0
DEVILS ISLAND    1800   49      80/  7/  7 1004.0F
PORT WING        1740   52     350/  3/  4 1004.4F
SAXON HARBOR     1740   58      60/  1/  2 1004.4S
$$

LMZ867-665-643>646-281900-
LAKE MICHIGAN

STATION/POSITION TIME  TEMP    WIND        PRES    WAVE
                       AIR SEA DIR/SP/G            HT/PER
                 (UTC) (F)     (DEG/KT/KT) (MB)    (FT/S)
CHAMBERS ISLAND  1740   59     230/  3/  6 1005.1F
N MID L


USA.gov is the U.S. government's official web portal to all federal, state and local government web resources and services.